www.pogodaiklimat.ru

Погода и климат >> Архив погоды >> Коморские Острова >> Dzaoudzi


ПОГОДА в Dzaoudzi

  • Прогноз погоды в Dzaoudzi
  • Монитор погоды в Dzaoudzi
  • Климат города

АРХИВ ПОГОДЫ в Dzaoudzi

Время (UTC), дата Ветер
(напр.,м/с)
 
Видим.   Явления Облачность Т
(С)
Тd
(С)
f
(%)
Тe
(С)
Тes
(С)
Комфортность P
(гПа)
Po
(гПа)
Тmin
(С)
Tmax
(С)
R
(мм)
R24
(мм)
S
(см)
18 19.06 Ю 5
{8}
20 км н/о +26.0 +21.0 74 +33 +33 очень
душно
1016.7 1017.0 +30.0
21 19.06 ЮЗ 5
{8}
20 км н/о +25.9 +21.1 75 +33 +33 очень
душно
1016.3 1016.0
00 20.06 ЮЗ 6
{8}
20 км н/о +25.6 +21.7 79 +33 +33 очень
душно
1015.1 1015.0
03 20.06 Ю 8
{12}
20 км 4/4 700 м
[Cu Sc]
+26.3 +21.5 75 +34 +34 очень
душно
1015.5 1016.0
06 20.06 Ю 7
{10}
20 км 4/4 750 м
[Cu Sc]
+28.3 +21.3 66 +36 +37 очень
душно
1016.8 1017.0 +25.4
09 20.06 Ю 7
{10}
20 км 3/3 800 м
[Cu Sc]
+29.5 +20.6 59 +37 +39 очень
душно
1015.6 1016.0
12 20.06 Ю 6
{10}
20 км 4/4 700 м
[Cu med, cong]
+29.0 +20.2 59 +35 +37 очень
душно
1014.0 1014.0
15 20.06 Ю 6
{8}
20 км 3/3 660 м
[Cu Sc]
+26.3 +19.9 68 +32 +32 очень
душно
1015.0 1015.0
18 20.06 Ю 6
{8}
20 км н/о +26.2 +20.8 72 +33 +33 очень
душно
1016.5 1017.0 +29.9
21 20.06 ЮЗ 5
{7}
20 км 8/8 600 м
[]
+25.7 +21.4 77 +33 +33 очень
душно
1016.0 1016.0
00 21.06 ЮЗ 6
{8}
20 км 9/9 600 м
[]
+25.8 +21.9 79 +33 +33 очень
душно
1014.8 1015.0
03 21.06 Ю 7
{11}
20 км 5/5 660 м
[Cu Sc]
+26.3 +20.8 72 +33 +33 очень
душно
1015.1 1015.0
06 21.06 Ю 6
{10}
20 км 5/5 660 м
[Cu Sc Ac trans]
+28.4 +21.2 65 +36 +37 очень
душно
1016.5 1017.0 +25.5
09 21.06 Ю 7
{10}
20 км 6/6 660 м
[Cu Sc Ac trans]
+28.9 +22.2 67 +38 +39 очень
душно
1015.1 1015.0
12 21.06 Ю 5
{9}
20 км 3/3 660 м
[Cu med, cong]
+29.0 +21.5 64 +37 +39 очень
душно
1013.2 1013.0
15 21.06 Ю 6
{8}
20 км 4/4 700 м
[Cu med, cong]
+26.4 +21.4 74 +34 +34 очень
душно
1014.3 1014.0
18 21.06 Ю 5
{7}
20 км н/о +26.2 +20.8 72 +33 +33 очень
душно
1015.6 1016.0 +29.6
21 21.06 ЮЗ 5
{7}
20 км н/о +25.7 +21.1 76 +32 +32 очень
душно
1015.4 1015.0
00 22.06 ЮЗ 5
{6}
20 км 9/9 600 м
[]
+25.7 +22.4 82 +34 +34 очень
душно
1014.5 1015.0
03 22.06 Ю 5
{7}
20 км 5/4 700 м
[Cu Sc Ac trans]
+26.0 +21.9 78 +33 +33 очень
душно
1015.2 1015.0
06 22.06 ЮВ 4
{7}
20 км осадки на расстоянии 6/6 630 м
[Cu med, cong]
+28.6 +23.1 72 +38 +40 очень
душно
1016.7 1017.0 +25.3
09 22.06 В 3
{8}
10 км в посл. час ливневой дождь 9/6 420 м
[Cu Sc Ac trans]
+25.5 +23.0 86 +34 +37 очень
душно
1016.3 1016.0 2
12 22.06 СВ 4
{7}
15 км {ливн. осадки} 6/6 600 м
[Cu Sc Ac trans]
+28.9 +22.6 69 +38 +40 очень
душно
1014.8 1015.0 2
15 22.06 С 2
{5}
20 км 9/1 500 м
[Cu Sc Ac trans]
+26.5 +22.1 77 +34 +34 очень
душно
1015.8 1016.0
18 22.06 СВ 3
{5}
20 км н/о +25.8 +22.5 82 +34 +34 очень
душно
1017.3 1017.0 +29.6 2
21 22.06 С 2
{3}
20 км 9/0
[]
+25.3 +22.6 85 +33 +33 очень
душно
1017.2 1017.0
00 23.06 С 2
{3}
20 км н/о +24.3 +22.4 89 +32 +32 очень
душно
1016.1 1016.0
03 23.06 СВ 1
{3}
6000 м слабый ливневой дождь 9/9 540 м
[Cu Sc]
+24.6 +23.0 91 +33 +33 очень
душно
1016.7 1017.0 2
06 23.06 СВ 3 15 км {ливн. осадки} 6/3 700 м
[Cu Sc Ac trans Ci sp]
+29.2 +23.9 73 +40 +44 очень
душно
1018.3 1018.0 +24.3 8
09 23.06 СВ 5
{8}
15 км 3/1 700 м
[Cu Sc Ac trans Ci sp]
+30.5 +21.9 60 +39 +46 очень
душно
1017.5 1018.0
12 23.06 СВ 3
{5}
20 км 4/1 800 м
[Cu Sc Ac trans Ci fib]
+30.8 +22.4 61 +40 +44 очень
душно
1016.0 1016.0
15 23.06 СВ 1
{3}
20 км 4/1 800 м
[Cu Sc Ci fib]
+26.9 +21.9 74 +35 +35 очень
душно
1016.7 1017.0
18 23.06 З 2
{3}
20 км н/о +25.4 +22.3 83 +33 +33 очень
душно
1017.8 1018.0 +31.4
21 23.06 З 2
{4}
20 км 9/9 1500 м
[]
+25.2 +23.1 88 +34 +34 очень
душно
1017.9 1018.0
00 24.06 З 4
{6}
20 км н/о +24.8 +22.9 89 +33 +33 очень
душно
1016.2 1016.0 11
03 24.06 Ю 9
{12}
15 км слабый ливневой дождь 6/5 600 м
[Cu Sc Ac trans]
+24.4 +21.9 86 +31 +31 очень
душно
1016.3 1016.0 1
06 24.06 Ю 7
{10}
20 км {ливн. осадки} 4/4 660 м
[Cu Sc]
+28.2 +23.3 75 +38 +39 очень
душно
1017.4 1017.0 +23.3 12
09 24.06 Ю 6
{10}
20 км 3/3 660 м
[Cu med, cong]
+29.3 +22.3 66 +38 +42 очень
душно
1016.5 1017.0
12 24.06 Ю 6
{8}
20 км 4/4 660 м
[Cu med, cong]
+29.2 +21.9 65 +38 +39 очень
душно
1014.4 1014.0
15 24.06 Ю 5
{8}
20 км 4/3 660 м
[Cu Sc Ci fib]
+26.3 +21.5 75 +34 +34 очень
душно
1015.0 1015.0
18 24.06 Ю 4
{7}
20 км н/о +25.7 +21.1 76 +32 +32 очень
душно
1015.9 1016.0 +30.0
21 24.06 З 3
{4}
20 км н/о +25.2 +22.5 85 +33 +33 очень
душно
1015.9 1016.0
00 25.06 Ю 6
{8}
20 км н/о +25.8 +21.9 79 +33 +33 очень
душно
1014.8 1015.0
03 25.06 Ю 6
{10}
20 км 4/3 660 м
[Cu Sc Ac trans]
+26.4 +22.0 77 +34 +34 очень
душно
1014.9 1015.0
06 25.06 Ю 8
{11}
20 км 3/3 660 м
[Cu Sc]
+28.2 +22.0 69 +36 +37 очень
душно
1016.3 1016.0 +25.1
09 25.06 Ю 8
{11}
20 км 3/1 700 м
[Cu Sc Ac trans]
+29.4 +19.7 56 +35 +38 очень
душно
1016.0 1016.0
12 25.06 ЮВ 7
{10}
20 км 4/4 900 м
[Cu med, cong]
+29.0 +19.9 58 +35 +36 очень
душно
1014.4 1014.0
15 25.06 ЮВ 7
{10}
20 км 3/1 900 м
[Cu hum Ac trans]
+26.3 +19.7 67 +32 +32 очень
душно
1015.3 1015.0
18 25.06 ЮВ 5
{8}
20 км н/о +26.5 +19.4 65 +32 +32 очень
душно
1016.6 1017.0 +29.8
21 25.06 Ю 4
{6}
20 км н/о +25.9 +19.1 66 +31 +31 очень
душно
1016.4 1016.0
00 26.06 Ю 4
{7}
20 км н/о +25.2 +21.5 80 +32 +32 очень
душно
1015.1 1015.0
03 26.06 Ю 8
{12}
20 км 3/3 700 м
[Cu med, cong]
+25.7 +19.1 67 +31 +31 очень
душно
1015.8 1016.0
06 26.06 ЮВ 8
{11}
20 км 4/4 900 м
[Cu med, cong]
+27.9 +17.7 54 +32 +33 душно 1017.7 1018.0 +24.4
09 26.06 ЮВ 8
{12}
20 км 4/4 900 м
[Cu med, cong]
+28.3 +20.3 62 +35 +36 очень
душно
1016.9 1017.0
12 26.06 ЮВ 8
{11}
20 км 1/1 900 м
[Cu med, cong]
+27.8 +19.3 60 +33 +35 очень
душно
1015.8 1016.0
15 26.06 ЮВ 5
{8}
20 км 1/1 900 м
[Cu hum]
+26.0 +19.9 69 +32 +32 очень
душно
1016.5 1017.0

 

Местоположение метеостанции Dzaoudzi (Коморские Острова): широта -12.80 долгота 45.28 высота над уровнем моря 7 м.

В архиве по умолчанию представлена погода в Dzaoudzi за последнюю неделю. Архивные данные за месяц целиком и за предыдущие месяцы, начиная с января 2011 года, Вы можете получить, выбрав интересующий диапазон дат из раскрывающегося списка и нажав кнопку "Ввод!".

Внимание! Время в таблицах - всемирное. Для получения местного времени необходимо прибавить поправку, которая в Dzaoudzi равна 3 ч.

Смотрите также архив погоды в соседних городах и на ближайших метеорологических станциях:

Погода в Iles Glorieuses (Реюньон) (254 км)
Погода в Moroni (Коморские Острова) (260 км)
Погода в Fascene (Мадагаскар) (334 км)
Погода в Mahajanga (Мадагаскар) (338 км)
Погода в Antsohihy (Мадагаскар) (372 км)
Погода в Antsiranana (Мадагаскар) (439 км)
Погода в Besalampy (Мадагаскар) (448 км)
Погода в Pemba (Мадагаскар) (515 км)
Погода в Ile Juan De Nova (Реюньон) (543 км)
Погода в Sambava (Мадагаскар) (554 км)

Пояснения к столбцам:

Ветер - указаны скорость ветра в м/с - средняя за 10 мин, порывы в срок и между сроками (в фигурных скобках) и направление, откуда дует ветер: С - северный, СВ - северо-восточный, В - восточный, ЮВ - юго-восточный, Ю - южный, ЮЗ - юго-западный, З - западный, СЗ - северо-западный.
Видимость - горизонтальная дальность видимости в метрах или километрах. При видимости от 1 до 10 км при отсутствии осадков обычно наблюдается дымка, при ухудшении видимости до 1 км и менее - туман. В сухую погоду видимость может ухудшаться дымом, пылью или мглою.
Явления - указаны атмосферные явления, наблюдавшиеся в срок или в последний час перед сроком; фигурными скобками обозначены явления, наблюдавшиеся между сроками (за 1-3 часа до срока); квадратными скобками обозначены град или гололедные отложения с указанием их диаметра в мм.
Облачность - указаны через наклонную черту общая и нижняя облачность в баллах и высота нижней границы облаков в метрах; квадратными скобками обозначены формы облаков: Ci - перистые, Cs - перисто-слоистые, Cc - перисто-кучевые, Ac - высококучевые, As - высокослоистые, Sc - слоисто-кучевые, Ns - слоисто-дождевые, Cu - кучевые, Cb - кучево-дождевые. Подробнее классификацию облаков см. в Атласе облаков (PDF).
T - Температура воздуха - температура, измеренная на высоте 2 м над землей.
Td - Температура точки росы - температура, при понижении до которой содержащийся в воздухе водяной пар достигнет насыщения.
f - Относительная влажность воздуха - влажноcть воздуха, измеренная на высоте 2 м над землей.
Te - Эффективная температура - температура, которую ощущает одетый по сезону человек в тени. Характеристика душности погоды. При расчете учитывается влияние влажности воздуха и скорости ветра на теплоощущения человека.
Tes - Эффективная температура на солнце - температура, которую ощущает человек, с поправкой на солнечный нагрев. Характеристика знойности погоды. Зависит от высоты солнца над горизонтом, облачности и скорости ветра. Ночью, в пасмурную погоду, а также при ветре 12 м/с и более поправка равна нулю.
P - Атмосферное давление - приведенное к уровню моря атмосферное давление.
Po - Атмосферное давление - измеренное на уровне метеостанции атмосферное давление.
Tmin - Минимальная температура - минимум температуры воздуха на высоте 2 м над землей.
Tmax - Максимальная температура - максимум температуры воздуха на высоте 2 м над землей.
R - Количество осадков - Количество выпавших осадков за период времени, мм. При наведении курсора мыши на число - период времени, за который выпало указанное количество осадков.
R24 - Количество осадков - Количество выпавших осадков за 24 часа, мм.
S - Снежный покров - Высота снежного покрова, см. При наведении курсора мыши на число - состояние снежного покрова и степень покрытия местности в баллах.